CW3322 Weather Reports


Display with metric or nautical units.
time (UTC)temp
F
wind
direction
speed
MPH
gust
MPH
rain 1hr
in
rain 24hr
in
rain mn
in
humidity
%
barometer
mb
20260502225524 56 0.0 0.0 0.00 0.00 0.00 64 1017.5
20260502225017 56 0.0 0.0 0.00 0.00 0.00 65 1017.1
20260502224545 56 0.0 0.0 0.00 0.00 0.00 66 1016.5
20260502224020 55 0.0 0.0 0.00 0.00 0.00 68 1016.5
20260502223525 55 0.0 0.0 0.00 0.00 0.00 70 1016.8
20260502223017 56 0.0 0.0 0.00 0.00 0.00 71 1017.5
20260502222522 56 0.0 0.0 0.00 0.00 0.00 72 1017.5
20260502222251 56 0.0 0.0 0.00 0.00 0.00 71 1017.5
20260502221520 56 0.0 0.0 0.00 0.00 0.00 72 1017.5
20260502221445 55 0.0 0.0 0.00 0.00 0.00 72 1017.5
20260502220517 55 0.0 0.0 0.00 0.00 0.00 71 1017.5
20260502220022 54 0.0 0.0 0.00 0.00 0.00 74 1017.4
20260502215515 54 0.0 0.0 0.00 0.00 0.00 77 1017.4
20260502215049 53 0.0 0.0 0.00 0.00 0.00 79 1017.4
20260502214524 53 0.0 0.0 0.00 0.00 0.00 79 1017.4
20260502214017 53 0.0 0.0 0.00 0.00 0.00 79 1017.4
20260502213522 53 0.0 0.0 0.00 0.00 0.00 80 1017.4
20260502213027 54 0.0 0.0 0.00 0.00 0.00 80 1017.4
20260502212519 54 0.0 0.0 0.00 0.00 0.00 79 1017.4
20260502212024 54 0.0 0.0 0.00 0.00 0.00 79 1017.4
20260502211516 55 0.0 0.0 0.00 0.00 0.00 78 1017.4
20260502211051 55 0.0 0.0 0.00 0.00 0.00 77 1017.4
20260502210556 55 0.0 0.0 0.00 0.00 0.00 77 1017.4
20260502210019 55 0.0 0.0 0.00 0.00 0.00 76 1017.4
20260502205523 55 0.0 0.0 0.00 0.00 0.00 76 1017.4
20260502205016 55 0.0 0.0 0.00 0.00 0.00 75 1017.4
20260502204521 56 0.0 0.0 0.00 0.00 0.00 76 1017.4
20260502204025 56 0.0 0.0 0.00 0.00 0.00 74 1017.4
20260502203518 56 0.0 0.0 0.00 0.00 0.00 74 1017.4
20260502203022 57 0.0 0.0 0.00 0.00 0.00 72 1017.4
20260502202515 57 0.0 0.0 0.00 0.00 0.00 71 1017.4
20260502202020 57 0.0 0.0 0.00 0.00 0.00 72 1017.4
20260502201525 58 0.0 0.0 0.00 0.00 0.00 73 1017.4
20260502201018 58 0.0 0.0 0.00 0.00 0.00 71 1017.4
20260502200523 58 0.0 0.0 0.00 0.00 0.00 69 1017.4
20260502200015 59 0.0 0.0 0.00 0.00 0.00 67 1017.4
20260502195550 59 0.0 0.0 0.00 0.00 0.00 66 1017.4
20260502195026 60 0.0 0.0 0.00 0.00 0.00 65 1017.4
20260502194518 60 0.0 0.0 0.00 0.00 0.00 64 1017.4
20260502194036 60 0.0 0.0 0.00 0.00 0.00 64 1017.4
20260502193530 61 0.0 0.0 0.00 0.00 0.00 65 1017.4
20260502193022 61 0.0 0.0 0.00 0.00 0.00 62 1017.0
20260502192516 62 0.0 0.0 0.00 0.00 0.00 62 1016.4
20260502192019 62 0.0 0.0 0.00 0.00 0.00 60 1016.3
20260502191524 63 0.0 0.0 0.00 0.00 0.00 60 1016.3
20260502191046 63 0.0 0.0 0.00 0.00 0.00 59 1016.3
20260502190504 64 0.0 0.0 0.00 0.00 0.00 56 1016.3
20260502185558 66 0.0 0.0 0.00 0.00 0.00 54 1016.4
20260502185025 66 0.0 0.0 0.00 0.00 0.00 52 1016.3
20260502184517 67 0.0 0.0 0.00 0.00 0.00 49 1016.3
20260502184022 67 0.0 0.0 0.00 0.00 0.00 49 1016.3
20260502183545 68 0.0 0.0 0.00 0.00 0.00 49 1016.3
20260502183020 68 0.0 0.0 0.00 0.00 0.00 47 1016.3
20260502182620 69 0.0 0.0 0.00 0.00 0.00 45 1016.3
20260502182018 70 0.0 0.0 0.00 0.00 0.00 45 1016.3
20260502181653 70 0.0 0.0 0.00 0.00 0.00 43 1016.2
20260502181016 71 0.0 0.0 0.00 0.00 0.00 42 1016.2
20260502180521 71 0.0 0.0 0.00 0.00 0.00 41 1016.2
20260502164024 77 312 1.0 7.0 0.00 0.00 0.00 33 1016.7
20260502163635 77 354 1.0 6.0 0.00 0.00 0.00 35 1017.2
20260502163022 77 281 2.0 8.0 0.00 0.00 0.00 37 1017.2
20260502162515 77 294 2.0 5.0 0.00 0.00 0.00 37 1017.2
20260502162021 78 300 1.0 5.0 0.00 0.00 0.00 37 1017.2
20260502161714 78 312 2.0 7.0 0.00 0.00 0.00 37 1017.3
20260502161050 78 305 1.0 5.0 0.00 0.00 0.00 37 1017.3
20260502160909 78 283 2.0 6.0 0.00 0.00 0.00 35 1017.2
20260502152022 79 300 2.0 8.0 0.00 0.00 0.00 35 1017.2
20260502151515 79 280 3.0 8.0 0.00 0.00 0.00 34 1017.3
20260502151021 79 293 3.0 7.0 0.00 0.00 0.00 33 1017.5
20260502150526 79 280 2.0 5.0 0.00 0.00 0.00 34 1018.3
20260502130527 79 357 1.0 2.0 0.00 0.00 0.00 46 1019.4
20260502123551 79 286 2.0 8.0 0.00 0.00 0.00 46 1019.9
20260502123039 78 288 2.0 5.0 0.00 0.00 0.00 48 1020.4
20260502122531 78 288 2.0 6.0 0.00 0.00 0.00 47 1020.4
20260502122044 78 321 2.0 2.0 0.00 0.00 0.00 48 1020.4
20260502121516 78 2 2.0 5.0 0.00 0.00 0.00 49 1020.4
20260502121136 78 304 2.0 7.0 0.00 0.00 0.00 48 1020.4
20260502120526 78 329 0.0 2.0 0.00 0.00 0.00 50 1020.4
20260502115524 78 317 2.0 5.0 0.00 0.00 0.00 49 1020.4
20260502115017 78 315 1.0 5.0 0.00 0.00 0.00 49 1020.4
20260502114522 77 349 1.0 5.0 0.00 0.00 0.00 51 1020.4
20260502114027 77 325 2.0 6.0 0.00 0.00 0.00 50 1020.4
20260502113519 77 317 1.0 3.0 0.00 0.00 0.00 50 1020.4
20260502113024 77 298 2.0 6.0 0.00 0.00 0.00 50 1020.4
20260502112517 76 311 1.0 2.0 0.00 0.00 0.00 51 1020.4
20260502112022 76 303 2.0 5.0 0.00 0.00 0.00 51 1020.5
20260502111527 75 281 2.0 6.0 0.00 0.00 0.00 51 1021.4
20260502111050 75 319 2.0 7.0 0.00 0.00 0.00 52 1021.4
20260502110538 74 304 1.0 5.0 0.00 0.00 0.00 52 1021.4
20260502110031 74 319 2.0 5.0 0.00 0.00 0.00 53 1021.4
20260502105554 74 285 3.0 9.0 0.00 0.00 0.00 52 1021.4
20260502105016 74 336 2.0 7.0 0.00 0.00 0.00 53 1021.4
20260502104555 75 291 2.0 8.0 0.00 0.00 0.00 52 1021.4
20260502104018 74 330 2.0 6.0 0.00 0.00 0.00 51 1021.4
20260502103552 74 281 2.0 5.0 0.00 0.00 0.00 53 1021.4
20260502103015 74 276 2.0 7.0 0.00 0.00 0.00 53 1021.4
20260502102550 74 329 2.0 6.0 0.00 0.00 0.00 53 1021.4
20260502102025 74 296 2.0 7.0 0.00 0.00 0.00 53 1021.4
20260502101022 74 302 2.0 6.0 0.00 0.00 0.00 54 1021.4
20260502100515 74 314 1.0 6.0 0.00 0.00 0.00 54 1021.4
20260502091516 71 29 1.0 3.0 0.00 0.00 0.00 54 1022.4
20260502091051 71 5 1.0 3.0 0.00 0.00 0.00 55 1022.4
20260502090526 71 293 2.0 3.0 0.00 0.00 0.00 54 1022.4
20260502090331 70 313 1.0 2.0 0.00 0.00 0.00 55 1022.4
20260502071522 63 0.0 0.0 0.00 0.00 0.00 58 1023.4
20260502071056 62 4 0.0 0.0 0.00 0.00 0.00 59 1023.4
20260502070517 61 0.0 0.0 0.00 0.00 0.00 62 1023.4
20260502070022 60 0.0 0.0 0.00 0.00 0.00 63 1023.4
20260502065657 59 0.0 0.0 0.00 0.00 0.00 64 1023.4
20260502065017 58 0.0 0.0 0.00 0.00 0.00 67 1023.4
20260502064521 57 0.0 0.0 0.00 0.00 0.00 70 1023.4
20260502064233 56 0.0 0.0 0.00 0.00 0.00 72 1023.4
20260502063517 56 0.0 0.0 0.00 0.00 0.00 72 1023.5
20260502063021 55 0.0 0.0 0.00 0.00 0.00 72 1023.4
20260502062524 55 0.0 0.0 0.00 0.00 0.00 74 1023.4
20260502062045 54 0.0 0.0 0.00 0.00 0.00 74 1023.4
20260502061549 54 0.0 0.0 0.00 0.00 0.00 75 1023.4
20260502061023 52 0.0 0.0 0.00 0.00 0.00 79 1023.4
20260502060515 51 357 0.0 1.0 0.00 0.00 0.00 82 1023.4
20260502060019 49 0.0 0.0 0.00 0.00 0.00 86 1023.4
20260502055524 48 360 0.0 1.0 0.00 0.00 0.00 87 1023.3
20260502055016 46 0.0 0.0 0.00 0.00 0.00 95 1023.3
20260502054520 44 360 0.0 1.0 0.00 0.00 0.00 95 1023.2
20260502054024 44 321 0.0 1.0 0.00 0.00 0.00 96 1022.2
20260502053516 43 322 0.0 1.0 0.00 0.00 0.00 97 1022.2
20260502053021 43 0.0 0.0 0.00 0.00 0.00 97 1022.2
20260502052525 43 0.0 0.0 0.00 0.00 0.00 98 1023.2
20260502052018 42 0.0 0.0 0.00 0.00 0.00 99 1023.2
20260502051552 42 0.0 0.0 0.00 0.00 0.00 99 1023.2
20260502051026 41 0.0 0.0 0.00 0.00 0.00 99 1023.1
20260502050518 41 0.0 0.0 0.00 0.00 0.00 99 1023.2
20260502050036 41 0.0 0.0 0.00 0.00 0.00 99 1023.2
20260502045528 41 0.0 0.0 0.00 0.00 0.00 99 1023.2
20260502045021 41 0.0 0.0 0.00 0.00 0.00 99 1023.2
20260502044524 40 0.0 0.0 0.00 0.00 0.00 99 1023.1
20260502044016 40 0.0 0.0 0.00 0.00 0.00 99 1022.3
20260502043527 40 0.0 0.0 0.00 0.00 0.00 99 1022.2
20260502043024 40 0.0 0.0 0.00 0.00 0.00 99 1022.2
20260502042600 40 0.0 0.0 0.00 0.00 0.00 99 1022.2
20260502042052 40 0.0 0.0 0.00 0.00 0.00 99 1022.2
20260502041525 40 0.0 0.0 0.00 0.00 0.00 99 1022.2
20260502041018 40 0.0 0.0 0.00 0.00 0.00 99 1022.2
20260502040522 40 0.0 0.0 0.00 0.00 0.00 99 1022.2
20260502040026 40 0.0 0.0 0.00 0.00 0.00 99 1022.2
20260502035619 40 0.0 0.0 0.00 0.00 0.00 99 1023.2
20260502035023 40 0.0 0.0 0.00 0.00 0.00 99 1023.2
20260502034515 40 0.0 0.0 0.00 0.00 0.00 98 1023.2
20260502034156 40 0.0 0.0 0.00 0.00 0.00 99 1023.2
20260502033524 40 0.0 0.0 0.00 0.00 0.00 99 1023.2
20260502033045 40 0.0 0.0 0.00 0.00 0.00 99 1023.2
20260502032520 40 0.0 0.0 0.00 0.00 0.00 99 1022.9
20260502032025 40 0.0 0.0 0.00 0.00 0.00 98 1022.2
20260502031517 40 0.0 0.0 0.00 0.00 0.00 99 1022.2
20260502031051 40 0.0 0.0 0.00 0.00 0.00 98 1022.5
20260502030526 40 0.0 0.0 0.00 0.00 0.00 99 1023.2
20260502030018 40 0.0 0.0 0.00 0.00 0.00 98 1023.2
20260502025523 41 0.0 0.0 0.00 0.00 0.00 98 1023.0
20260502025014 41 0.0 0.0 0.00 0.00 0.00 98 1022.2
20260502024520 41 0.0 0.0 0.00 0.00 0.00 98 1022.2
20260502024024 41 0.0 0.0 0.00 0.00 0.00 98 1022.4
20260502023516 41 0.0 0.0 0.00 0.00 0.00 98 1023.2
20260502023021 41 0.0 0.0 0.00 0.00 0.00 97 1023.2
20260502022539 41 0.0 0.0 0.00 0.00 0.00 98 1023.2
20260502022031 41 0.0 0.0 0.00 0.00 0.00 98 1022.2
20260502021523 41 0.0 0.0 0.00 0.00 0.00 97 1022.2
20260502021016 41 0.0 0.0 0.00 0.00 0.00 97 1022.2
20260502020519 41 0.0 0.0 0.00 0.00 0.00 96 1023.2
20260502020024 41 0.0 0.0 0.00 0.00 0.00 97 1023.2
20260502015516 41 0.0 0.0 0.00 0.00 0.00 97 1023.2
20260502015020 41 0.0 0.0 0.00 0.00 0.00 96 1023.2
20260502014525 41 0.0 0.0 0.00 0.00 0.00 96 1023.2
20260502014018 42 0.0 0.0 0.00 0.00 0.00 95 1023.2
20260502013522 42 0.0 0.0 0.00 0.00 0.00 96 1023.2
20260502013027 42 0.0 0.0 0.00 0.00 0.00 96 1023.2
20260502012519 42 0.0 0.0 0.00 0.00 0.00 96 1023.2
20260502012054 42 0.0 0.0 0.00 0.00 0.00 96 1022.4
20260502011516 42 0.0 0.0 0.00 0.00 0.00 95 1022.2
20260502011021 42 0.0 0.0 0.00 0.00 0.00 95 1022.2
20260502010910 42 0.0 0.0 0.00 0.00 0.00 95 1023.0
20260502005524 43 0.0 0.0 0.00 0.00 0.00 95 1023.2
20260502005016 43 0.0 0.0 0.00 0.00 0.00 95 1023.2
20260502004520 43 0.0 0.0 0.00 0.00 0.00 95 1023.2
20260502004024 43 0.0 0.0 0.00 0.00 0.00 94 1023.2
20260502003517 43 0.0 0.0 0.00 0.00 0.00 94 1023.2
20260502003022 43 0.0 0.0 0.00 0.00 0.00 93 1023.2
20260502002557 43 0.0 0.0 0.00 0.00 0.00 92 1023.2
20260502002020 43 0.0 0.0 0.00 0.00 0.00 92 1023.2
20260502001524 43 0.0 0.0 0.00 0.00 0.00 92 1023.2
20260502001017 44 0.0 0.0 0.00 0.00 0.00 92 1023.2
20260502000521 44 0.0 0.0 0.00 0.00 0.00 93 1023.2
20260502000026 44 0.0 0.0 0.00 0.00 0.00 92 1023.2
20260501235519 44 0.0 0.0 0.00 0.00 0.00 90 1023.2
20260501235023 44 0.0 0.0 0.00 0.00 0.00 89 1023.2
20260501234516 44 0.0 0.0 0.00 0.00 0.00 89 1023.2
20260501234020 45 0.0 0.0 0.00 0.00 0.00 89 1023.2
20260501233525 45 0.0 0.0 0.00 0.00 0.00 89 1023.2
20260501233017 45 0.0 0.0 0.00 0.00 0.00 89 1023.2
20260501232522 45 0.0 0.0 0.00 0.00 0.00 89 1023.2
20260501232027 45 0.0 0.0 0.00 0.00 0.00 89 1023.2
20260501231519 45 0.0 0.0 0.00 0.00 0.00 89 1023.2
20260501231054 46 0.0 0.0 0.00 0.00 0.00 88 1023.2
20260501230516 46 0.0 0.0 0.00 0.00 0.00 88 1023.2
20260501230051 46 0.0 0.0 0.00 0.00 0.00 87 1023.2